Regional Weather Roundup
Issued by NWS

Home | Current Version | Previous Version | Text Only | Print | Product List | Glossary Off
Versions: 1 2 3 4 5 6 7 8 9 10 11 12 13 14 15 16 17 18 19 20 21 22 23 24 25 26 27 28 29 30 31 32 33 34 35 36 37 38 39 40 41 42 43 44 45 46 47 48 49 50

000
ASUS43 KDMX 220207
RWRIA

WEATHER ROUNDUP FOR IOWA
NATIONAL WEATHER SERVICE DES MOINES IA
900 PM CDT THU MAY 21 2015

NOTE: "FAIR" INDICATES FEW OR NO CLOUDS BELOW 12,000 FEET WITH NO
SIGNIFICANT WEATHER AND/OR OBSTRUCTIONS TO VISIBILITY.

* - THESE STATIONS ARE NOT NWS STATIONS...THUS NOT UNDER NWS
QUALITY CONTROL.  THEY ALSO DO NOT REPORT WEATHER SUCH
AS PRECIPITATION OR FOG.

IAZ001>003-012>014-020>022-031>034-043>046-220300-
   NORTHWEST IOWA

CITY           SKY/WX    TMP DP  RH WIND       PRES   REMARKS
CARROLL *      PTCLDY    63  41  45 W10       30.10S
CHEROKEE *     CLEAR     61  41  48 CALM      30.11R
DENISON *      CLEAR     64  37  36 W5        30.11R
LE MARS *      PTCLDY    66  41  39 W6        30.12S
ORANGE CITY *  MOCLDY    61  43  51 W8        30.11S
SHELDON *      CLEAR     61  36  39 N5        30.09S
SIOUX CITY     CLEAR     66  36  32 W7        30.13R
SPENCER        CLEAR     63  33  32 N8        30.10R
STORM LAKE *   CLEAR     61  41  48 W8        30.11S
$$

IAZ055>058-069>071-079>083-090>094-220300-
   SOUTHWEST IOWA

CITY           SKY/WX    TMP DP  RH WIND       PRES   REMARKS
ATLANTIC *     CLEAR     63  41  45 W7        30.13S
AUDUBON *      CLEAR     61  39  44 CALM      30.13S
CLARINDA *     CLEAR     59  46  63 SW6       30.17R
COUNCIL BLFS * CLEAR     63  43  48 SW7       30.15S
CRESTON *      CLEAR     59  46  63 W9        30.14S
HARLAN  *      CLEAR     61  41  48 W9        30.16S
LAMONI         CLEAR     64  45  49 SW10      30.13S
RED OAK *      CLEAR     63  43  48 W7        30.15R
SHENANDOAH *   CLEAR     61  48  63 SW6       30.16S
$$

IAZ047>049-059>061-072>074-084-220300-
   CENTRAL IOWA

CITY           SKY/WX    TMP DP  RH WIND       PRES   REMARKS
AMES           CLEAR     62  40  44 NW6       30.07R
ANKENY *       MOCLDY    64  41  42 W7        30.07S
CHARITON *     CLEAR     63  45  51 SW9       30.10S
DES MOINES     PTCLDY    65  40  39 W8        30.08S
GRINNELL*      CLEAR     63  39  42 CALM      30.07R
KNOXVILLE *    CLEAR     63  41  45 SW8       30.07R
MARSHALLTOWN   CLEAR     60  33  36 NW8       30.06R
PELLA *        CLEAR     64  46  52 W7        30.08R
PERRY *        MOCLDY    63  43  48 W9        30.09R
$$

IAZ004>006-015-016-023>025-035-036-220300-
   NORTH CENTRAL IOWA

CITY           SKY/WX    TMP DP  RH WIND       PRES   REMARKS
ALGONA *       CLEAR     64  28  25 N8        30.08S
CLARION *      CLEAR     63  30  29 N7        30.07S
ESTHERVILLE    CLEAR     58  27  30 N9        30.08S
FORT DODGE *   CLEAR     63  37  39 CALM      30.09R
MASON CITY     CLEAR     59  36  42 NW7       30.07R
FOREST CITY *  CLEAR     59  32  36 NW8       30.07R
IOWA FALLS *     N/A     59  32  36 W6        30.07S
$$

IAZ007>011-017>019-026>030-037>042-050>054-066-220300-
   NORTHEAST IOWA

CITY           SKY/WX    TMP DP  RH WIND       PRES   REMARKS
CEDAR RAPIDS   CLEAR     61  38  42 NW10      30.03R
CHARLES CITY * CLEAR     63  34  34 NW7       30.06R
CLINTON *      PTCLDY    61  41  48 SW10      30.04R
DECORAH *      CLEAR     64  34  32 CALM      30.03R
DUBUQUE        CLEAR     57  39  51 NW7       30.02R
MONTICELLO *   CLEAR     63  37  39 NW8       30.02R
OELWEIN *      CLEAR     59  37  44 NW8       30.05R
WATERLOO       CLEAR     61  33  35 NW3       30.04R
$$

IAZ064-065-067-068-078-220300-
   EAST CENTRAL IOWA

CITY           SKY/WX    TMP DP  RH WIND       PRES   REMARKS
DAVENPORT      CLEAR     63  41  44 SW9       30.03S
IOWA CITY      CLEAR     62  44  51 W5        30.05R
MT. PLEASANT * PTCLDY    61  46  59 SW9       30.07S
MUSCATINE *    PTCLDY    66  45  45 SW12      30.04R
QUAD CITIES    PTCLDY    64  41  42 SW8       30.03S
$$

IAZ062-063-075>077-085>089-095>099-220300-
   SOUTHEAST IOWA

CITY           SKY/WX    TMP DP  RH WIND       PRES   REMARKS
BURLINGTON     CLEAR     60  49  66 SW9       30.07S
FAIRFIELD *    MOCLDY    63  46  55 SW7       30.07R
FORT MADISON * CLEAR     63  48  59 SW7       30.09S
KEOKUK *       CLEAR     61  48  63 SW8       30.09S
OSKALOOSA *      N/A     63  41  45 W10       30.07R
CENTERVILLE *  CLEAR     59  59 100 SW8       30.12S
OTTUMWA        CLEAR     60  44  55 SW8       30.07R
WASHINGTON *   MOCLDY    63  45  51 SW6       30.06S
$$

ABBREVIATIONS USED IN REMARKS
   TC - TEMPERATURES IN CELSIUS
  WCI - WIND CHILL INDEX
   HX - HEAT INDEX
  VSB - VISIBILITY
$$



USA.gov is the U.S. government's official web portal to all federal, state and local government web resources and services.